Погода в Кировском

Россия / Курская область     51°17′57″N   36°40′27″E
темп.,
°C
ветер,
м/с
пор.,
м/с
влажн.,
%
обл.,
%
осадки,
мм/ч
давл.,
гПа
погр.,
м
22 октября, пт
пт2200:00+11юз918605 0.0 1007718
03:00+10юз9177177 0.0 1006546
06:00+9юз81585100 0.0 1006477
09:00+10юз81578100 0.0 1007560
12:00+15зюз91355100 0.0 10081125
15:00+16зюз813379 0.0 10091766
18:00+13зюз612495 0.0 1010375
21:00+10юз513587 0.0 1012337
23 октября, сб
сб2300:00+10зюз613591 0.0 1012403
03:00+10зюз61557100 0.0 1012705
06:00+9ююз4105964 0.0 1012293
09:00+10юз5115672 0.0 1012590
12:00+13зюз8123348 0.0 10121472
15:00+12з8114118 0.0 10122016
18:00+8з611525 0.0 1014477
21:00+6з511671 0.0 1016448
24 октября, вс
вс2400:00+4з5117137 0.0 1017387
03:00+3зюз4107799 0.0 1018269
06:00+1зюз410875 0.0 1018218
09:00+4зюз511715 0.0 1019410
12:00+7з7955100 0.0 10191294
15:00+7з7959100 0.1 10181400
18:00+3зсз61192100 0.4 1019840
21:00+2ссз71295100 1.2 1021838
25 октября, пн
пн2500:00+1ссз7128063 0.1 1022717
03:00+1ссз71179100 0.1 1025892
06:000с7970100 0.0 10271010
09:00+1с6863100 0.0 10291067
12:00+3с68515 0.0 10301110
15:00+4с5745100 0.0 10311154
18:00+1ссз35590 0.0 103379
21:00−1с22665 0.0 103427
26 октября, вт
вт2600:00−2сз11710 0.0 103410
03:00−2зюз22720 0.0 103510
06:00−3юз22750 0.0 103521
09:000ююз23645 0.0 1037123
12:00+4ююз344322 0.0 1035662
15:00+6юз453543 0.0 1033850
18:00+2ююз354890 0.0 103379
21:000ююз485478 0.0 1032136